Regional Weather Roundup
Issued by NWS Albany, NY

Home | Current Version | Previous Version | Text Only | Print | Product List | Glossary On
Versions: 1 2 3 4 5 6 7 8 9 10 11 12 13 14 15 16 17 18 19 20 21 22 23 24 25 26 27
000
ASUS41 KALY 241110
RWRALY

NEW YORK STATE HOURLY WEATHER ROUNDUP
NATIONAL WEATHER SERVICE ALBANY NY
700 AM EDT MON APR 24 2017

NOTE: "FAIR" INDICATES FEW OR NO CLOUDS BELOW 12,000 FEET WITH NO
SIGNIFICANT WEATHER AND/OR NO OBSTRUCTIONS TO VISIBILITY.

NYZ032-033-038>043-046>054-057>066-NYZ062>081-082-084-241200-
EAST


CITY           SKY/WX    TMP DP  RH WIND       PRES   REMARKS
ALBANY         MOSUNNY   42  37  82 CALM      30.14R
GLENS FALLS    SUNNY     38  33  82 NE5       30.16R WCI  34
POUGHKEEPSIE   CLEAR     40  38  93 CALM      30.13R
NEWBURGH       CLEAR     45  43  93 CALM      30.13R
MONTGOMERY     CLEAR     40  39  97 CALM      30.13R
WHITE PLAINS   FOG       44  42  93 CALM      30.13S VSB 1/4
ISLIP          CLOUDY    42  42 100 CALM      30.15R FOG
NEW YORK CITY  CLOUDY    49  46  90 E6        30.15R
CENTRAL PARK   CLOUDY    50  45  83 CALM      30.17R
$$

NYZ005>009-017-018-044>046-055-056-241200-
CENTRAL


CITY           SKY/WX    TMP DP  RH WIND       PRES   REMARKS
FULTON         CLEAR     42  37  82 N8        30.14R
SYRACUSE       PTCLDY    39  36  89 CALM      30.13R
ROME           CLEAR     35  34  96 CALM      30.15R
ELMIRA         CLEAR     36  32  85 CALM      30.12R
BINGHAMTON     PTCLDY    43  33  68 CALM      30.10R
MONTICELLO     CLEAR     39  36  87 CALM      30.13R
$$

NYZ026>034-041>043-087-241200-
NORTH


CITY           SKY/WX    TMP DP  RH WIND       PRES   REMARKS
WATERTOWN      CLEAR     37  33  85 NE8       30.20R WCI  31
FORT DRUM      NOT AVBL
OGDENSBURG     FAIR      37  30  76 N10       30.23R WCI  29
MASSENA        CLOUDY    37  27  67 N9        30.25R WCI  30
SARANAC LAKE   CLOUDY    33  31  92 CALM      30.14R
PLATTSBURGH    CLOUDY    39  29  67 N14       30.22R WCI  31
$$

NYZ001>004-010>016-019>021-085-241200-
WEST


CITY           SKY/WX    TMP DP  RH WIND       PRES   REMARKS
NIAGARA FALLS    N/A    N/A N/A N/A MISG      30.13
BUFFALO        PTCLDY    41  32  70 NE12      30.13R
DUNKIRK        CLEAR     33  31  92 E3        30.11R
JAMESTOWN      CLOUDY    45  25  45 NE5       30.08R
WELLSVILLE     CLEAR     42  28  57 CALM      30.11R
ROCHESTER      PTCLDY    42  36  79 NE13      30.17R
PENN YAN       CLEAR     40  36  86 N5        30.13R
$$

             KEY
       WCI = WIND CHILL INDEX
       VSB = VISIBILITY
       HX  = HEAT INDEX
$$




USA.gov is the U.S. government's official web portal to all federal, state and local government web resources and services.